Time,TemperatureF,DewpointF,PressureIn,WindDirection,WindDirectionDegrees,WindSpeedMPH,WindSpeedGustMPH,Humidity,HourlyPrecipIn,Conditions,Clouds,dailyrainin,SoftwareType,DateUTC
2013-10-23 00:14:00,82.0,77.0,29.88,SSW,205,0.0,2.0,86,0.00,,,0.00,,2013-10-23 04:14:00,
2013-10-23 00:24:00,82.0,78.0,29.88,SW,216,3.0,5.0,87,0.00,,,0.00,,2013-10-23 04:24:00,
2013-10-23 00:45:00,82.0,78.0,29.88,SSW,207,3.0,5.0,87,0.00,,,0.00,,2013-10-23 04:45:00,
2013-10-23 00:55:00,82.0,78.0,29.87,South,178,3.0,6.0,87,0.00,,,0.00,,2013-10-23 04:55:00,
2013-10-23 01:23:00,82.0,77.0,29.86,SSW,192,3.0,5.0,86,0.00,,,0.00,,2013-10-23 05:23:00,
2013-10-23 01:53:00,82.0,77.0,29.86,SSW,198,1.0,8.0,86,0.00,,,0.00,,2013-10-23 05:53:00,
2013-10-23 02:22:00,82.0,77.0,29.86,WSW,240,5.0,7.0,86,0.00,,,0.00,,2013-10-23 06:22:00,
2013-10-23 02:42:00,82.0,77.0,29.85,South,180,5.0,8.0,86,0.00,,,0.00,,2013-10-23 06:42:00,
2013-10-23 02:52:00,82.0,77.0,29.84,SW,215,4.0,7.0,86,0.00,,,0.00,,2013-10-23 06:52:00,
2013-10-23 03:22:00,82.0,77.0,29.83,SSW,213,3.0,8.0,86,0.00,,,0.00,,2013-10-23 07:22:00,
2013-10-23 03:52:00,82.0,77.0,29.83,South,177,5.0,9.0,86,0.00,,,0.00,,2013-10-23 07:52:00,
2013-10-23 04:12:00,82.0,77.0,29.82,SSW,210,5.0,8.0,86,0.00,,,0.00,,2013-10-23 08:12:00,
2013-10-23 04:22:00,82.0,77.0,29.82,SW,214,1.0,6.0,86,0.00,,,0.00,,2013-10-23 08:22:00,
2013-10-23 04:53:00,82.0,77.0,29.82,SSW,211,3.0,6.0,86,0.00,,,0.00,,2013-10-23 08:53:00,
2013-10-23 05:12:00,82.0,77.0,29.82,WSW,241,4.0,7.0,86,0.00,,,0.00,,2013-10-23 09:12:00,
2013-10-23 05:22:00,82.0,77.0,29.82,WSW,239,5.0,8.0,85,0.00,,,0.00,,2013-10-23 09:22:00,
2013-10-23 05:53:00,82.0,77.0,29.82,West,263,3.0,7.0,85,0.00,,,0.00,,2013-10-23 09:53:00,
2013-10-23 06:23:00,82.0,77.0,29.82,West,263,3.0,5.0,86,0.00,,,0.00,,2013-10-23 10:23:00,
2013-10-23 06:53:00,82.0,77.0,29.83,West,281,2.0,4.0,86,0.00,,,0.00,,2013-10-23 10:53:00,
2013-10-23 07:22:00,82.0,78.0,29.84,West,271,3.0,6.0,87,0.00,,,0.00,,2013-10-23 11:22:00,
2013-10-23 07:52:00,82.0,78.0,29.85,West,261,3.0,6.0,87,0.00,,,0.00,,2013-10-23 11:52:00,
2013-10-23 08:22:00,82.0,78.0,29.85,WSW,238,3.0,5.0,87,0.00,,,0.00,,2013-10-23 12:22:00,
2013-10-23 08:42:00,82.0,78.0,29.85,SW,232,3.0,5.0,87,0.00,,,0.00,,2013-10-23 12:42:00,
2013-10-23 08:52:00,82.0,78.0,29.86,West,267,3.0,6.0,87,0.00,,,0.00,,2013-10-23 12:52:00,
2013-10-23 09:12:00,83.0,79.0,29.86,West,277,2.0,4.0,87,0.00,,,0.00,,2013-10-23 13:12:00,
2013-10-23 09:22:00,83.0,78.0,29.86,West,265,4.0,7.0,86,0.00,,,0.00,,2013-10-23 13:22:00,
2013-10-23 09:42:00,83.0,78.0,29.86,West,266,3.0,6.0,85,0.00,,,0.00,,2013-10-23 13:42:00,
2013-10-23 09:52:00,84.0,79.0,29.87,WNW,292,4.0,7.0,84,0.00,,,0.00,,2013-10-23 13:52:00,
2013-10-23 10:22:00,85.0,78.0,29.88,West,276,5.0,7.0,81,0.00,,,0.00,,2013-10-23 14:22:00,
2013-10-23 10:52:00,86.0,79.0,29.88,WNW,295,8.0,10.0,79,0.00,,,0.00,,2013-10-23 14:52:00,
2013-10-23 11:22:00,87.0,78.0,29.89,NW,311,4.0,7.0,74,0.00,,,0.00,,2013-10-23 15:22:00,
2013-10-23 11:43:00,88.0,79.0,29.89,NNW,336,3.0,6.0,75,0.00,,,0.00,,2013-10-23 15:43:00,
2013-10-23 11:53:00,88.0,79.0,29.89,NW,315,7.0,9.0,74,0.00,,,0.00,,2013-10-23 15:53:00,
2013-10-23 12:23:00,88.0,79.0,29.88,NW,308,6.0,11.0,74,0.00,,,0.00,,2013-10-23 16:23:00,
2013-10-23 12:53:00,89.0,80.0,29.88,NNW,336,6.0,8.0,76,0.00,,,0.00,,2013-10-23 16:53:00,
2013-10-23 13:23:00,90.0,79.0,29.86,NNW,330,7.0,12.0,70,0.00,,,0.00,,2013-10-23 17:23:00,
2013-10-23 13:44:00,90.0,79.0,29.85,NNW,333,8.0,12.0,70,0.00,,,0.00,,2013-10-23 17:44:00,
2013-10-23 13:52:00,88.0,78.0,29.85,NW,315,10.0,14.0,73,0.00,,,0.00,,2013-10-23 17:52:00,
2013-10-23 14:12:00,87.0,78.0,29.85,WNW,302,9.0,13.0,75,0.00,,,0.00,,2013-10-23 18:12:00,
2013-10-23 14:22:00,88.0,79.0,29.84,North,351,9.0,13.0,74,0.00,,,0.00,,2013-10-23 18:22:00,
2013-10-23 14:42:00,87.0,78.0,29.84,NW,309,10.0,13.0,75,0.00,,,0.00,,2013-10-23 18:42:00,
2013-10-23 14:52:00,86.0,77.0,29.84,WNW,296,7.0,13.0,75,0.00,,,0.00,,2013-10-23 18:52:00,
2013-10-23 15:12:00,87.0,79.0,29.84,NW,317,10.0,13.0,77,0.00,,,0.00,,2013-10-23 19:12:00,
2013-10-23 15:22:00,87.0,78.0,29.84,NW,319,12.0,15.0,76,0.00,,,0.00,,2013-10-23 19:22:00,
2013-10-23 15:42:00,87.0,79.0,29.83,NNW,340,10.0,15.0,77,0.00,,,0.00,,2013-10-23 19:42:00,
2013-10-23 15:53:00,88.0,80.0,29.83,NW,323,11.0,15.0,77,0.00,,,0.00,,2013-10-23 19:53:00,
2013-10-23 16:22:00,88.0,80.0,29.83,NNW,332,10.0,13.0,78,0.00,,,0.00,,2013-10-23 20:22:00,
2013-10-23 16:52:00,89.0,80.0,29.83,North,358,6.0,10.0,75,0.00,,,0.00,,2013-10-23 20:52:00,
2013-10-23 17:22:00,89.0,80.0,29.84,NW,320,5.0,10.0,74,0.00,,,0.00,,2013-10-23 21:22:00,
2013-10-23 17:43:00,89.0,80.0,29.85,North,3,8.0,11.0,74,0.00,,,0.00,,2013-10-23 21:43:00,
2013-10-23 17:54:00,88.0,79.0,29.85,North,350,8.0,11.0,74,0.00,,,0.00,,2013-10-23 21:54:00,
2013-10-23 18:13:00,88.0,79.0,29.86,NW,321,9.0,12.0,74,0.00,,,0.00,,2013-10-23 22:13:00,
2013-10-23 18:24:00,87.0,78.0,29.85,NNW,344,9.0,12.0,76,0.00,,,0.00,,2013-10-23 22:24:00,
2013-10-23 18:54:00,85.0,77.0,29.86,NW,316,6.0,9.0,77,0.00,,,0.00,,2013-10-23 22:54:00,
2013-10-23 19:23:00,84.0,77.0,29.86,NNW,329,6.0,9.0,80,0.00,,,0.00,,2013-10-23 23:23:00,
2013-10-23 19:53:00,83.0,77.0,29.86,NW,311,9.0,12.0,83,0.00,,,0.00,,2013-10-23 23:53:00,
2013-10-23 20:12:00,83.0,78.0,29.87,NNW,346,8.0,11.0,84,0.00,,,0.00,,2013-10-24 00:12:00,
2013-10-23 20:22:00,83.0,78.0,29.88,NW,318,9.0,11.0,84,0.00,,,0.00,,2013-10-24 00:22:00,
2013-10-23 20:52:00,83.0,79.0,29.88,NNE,25,14.0,16.0,87,0.00,,,0.00,,2013-10-24 00:52:00,
2013-10-23 21:11:00,83.0,79.0,29.88,NNE,17,14.0,16.0,87,0.00,,,0.00,,2013-10-24 01:11:00,
2013-10-23 21:22:00,82.0,78.0,29.89,NNE,24,12.0,15.0,88,0.00,,,0.00,,2013-10-24 01:22:00,
2013-10-23 21:32:00,82.0,78.0,29.89,NNE,24,12.0,15.0,88,0.00,,,0.00,,2013-10-24 01:32:00,
2013-10-23 21:42:00,82.0,78.0,29.89,NNE,24,12.0,15.0,88,0.00,,,0.00,,2013-10-24 01:42:00,
2013-10-23 21:52:00,82.0,78.0,29.90,NNE,31,8.0,11.0,87,0.00,,,0.00,,2013-10-24 01:52:00,
2013-10-23 22:12:00,82.0,78.0,29.91,NNE,22,7.0,10.0,87,0.00,,,0.00,,2013-10-24 02:12:00,
2013-10-23 22:22:00,82.0,78.0,29.91,North,11,6.0,8.0,87,0.00,,,0.00,,2013-10-24 02:22:00,
2013-10-23 23:22:00,81.0,77.0,29.93,NNE,33,15.0,19.0,88,0.02,,,0.02,,2013-10-24 03:22:00,
2013-10-23 23:55:00,81.0,77.0,29.93,NNE,27,13.0,16.0,87,0.01,,,0.02,,2013-10-24 03:55:00,